Location: Brockett
(40.8000°S, 175.4500°E)
Time: 03:31:07
(UTC+00:00)

DMSP B5D2-2 - Pass Details

Date: 04 August 2024
Orbit: 787 x 802 km, 98.3° (Epoch: 07 September)

Event Time Altitude Azimuth Distance (km) Brightness Sun altitude
Rises 17:14:45 0° 171° (S) 3,353 7.4 -24.0°
Reaches altitude 10° 17:17:08 10° 174° (S) 2,414 6.6 -23.6°
Maximum altitude 17:22:24 62° 253° (WSW) 911 4.0 -22.6°
Enters shadow 17:25:19 26° 325° (NW) 1,533 5.3 -22.0°
